Weather History for KCOF - May, 2014

Change the Weather History Date:

Sunday, May 4, 2014

  Actual Average Record
Temperature  
Mean Temperature 72 °F -  
Max Temperature 81 °F 79 °F 87 °F (2002)
Min Temperature 63 °F 67 °F 62 °F (1999)
Cooling Degree Days 7    
Growing Degree Days 22 (Base 50)    
Moisture  
Dew Point 61 °F    
Average Humidity 76    
Maximum Humidity 100    
Minimum Humidity 32    
Precipitation  
Precipitation 0.01 in - - ()
Sea Level Pressure  
Sea Level Pressure 30.05 in    
Wind  
Wind Speed 13 mph (North)    
Max Wind Speed 16 mph    
Max Gust Speed 21 mph    
Visibility 10 miles    
Events Rain    
Averages and records for this station are not official NWS values.
T = Trace of Precipitation, MM = Missing Value Source: NWS Daily Summary

Daily Weather History Graph

Daily Weather History Graph

Search for Another Location

Airport or City:

Trip Planner

Search our weather history database for the weather conditions in past years. The results will help you decide how hot, cold, wet, or windy it might be!

Date:

Astronomy

May. 04, 2014 Rise Set
Actual Time 6:39 AM EDT 7:58 PM EDT
Civil Twilight 6:14 AM EDT 8:24 PM EDT
Nautical Twilight 5:45 AM EDT 8:53 PM EDT
Astronomical Twilight 5:14 AM EDT 9:24 PM EDT
Moon 11:04 AM EDT (5/4) 12:00 AM EDT (5/4)
Length of Visible Light 14h 09m
Length of Day
13h 19m
Waxing Crescent, 27% of the Moon is Illuminated
May 4
Waxing Crescent
May 6
First Quarter
May 14
Full
May 21
Last Quarter
May 28
New

Hourly Weather History & Observations

Time (EDT) Temp. Heat Index Dew Point Humidity Pressure Visibility Wind Dir Wind Speed Gust Speed Precip Events Conditions
12:18 AM 66.2 °F - 66.2 °F 100% 30.02 in 8.0 mi NNW 16.1 mph - N/A Rain Light Rain
12:43 AM 66.2 °F - 66.2 °F 100% 30.02 in 10.0 mi North 15.0 mph - N/A Rain Light Rain
12:58 AM 66.2 °F - 65.3 °F 97% 30.04 in 10.0 mi North 12.7 mph - 0.01 in   Light Drizzle
1:03 AM 66.2 °F - 66.2 °F 100% 30.02 in 10.0 mi NNW 12.7 mph - N/A   Light Drizzle
1:04 AM 66.2 °F - 66.2 °F 100% 30.02 in 10.0 mi NNW 13.8 mph - N/A   Mostly Cloudy
1:09 AM 66.2 °F - 66.2 °F 100% 30.02 in 10.0 mi NNW 16.1 mph - N/A   Scattered Clouds
1:14 AM 66.2 °F - 66.2 °F 100% 30.02 in 10.0 mi NNW 15.0 mph - N/A   Light Drizzle
1:26 AM 66.2 °F - 64.4 °F 94% 30.02 in 10.0 mi NNW 12.7 mph - N/A   Partly Cloudy
1:58 AM 66.6 °F - 62.1 °F 85% 30.03 in 10.0 mi North 16.1 mph - 0.00 in   Scattered Clouds
2:03 AM 66.2 °F - 60.8 °F 83% 30.01 in 10.0 mi North 12.7 mph - N/A   Mostly Cloudy
2:13 AM 66.2 °F - 60.8 °F 83% 30.00 in 10.0 mi North 15.0 mph 19.6 mph N/A   Overcast
2:58 AM 66.9 °F - 62.4 °F 85% 30.01 in 10.0 mi NNW 11.5 mph - N/A   Mostly Cloudy
3:58 AM 65.5 °F - 61.7 °F 88% 30.01 in 10.0 mi NW 13.8 mph - N/A   Scattered Clouds
4:58 AM 64.2 °F - 59.5 °F 85% 30.03 in 10.0 mi NW 15.0 mph - N/A   Clear
5:58 AM 63.9 °F - 60.3 °F 88% 30.04 in 10.0 mi NW 15.0 mph - N/A   Clear
6:58 AM 63.7 °F - 59.9 °F 87% 30.06 in 10.0 mi NW 15.0 mph - N/A   Clear
7:58 AM 65.5 °F - 59.7 °F 82% 30.08 in 10.0 mi NW 13.8 mph - N/A   Clear
8:58 AM 68.5 °F - 57.9 °F 69% 30.09 in 10.0 mi NW 15.0 mph - N/A   Clear
9:58 AM 71.8 °F - 56.5 °F 58% 30.09 in 10.0 mi NNW 15.0 mph - N/A   Clear
10:58 AM 75.4 °F - 55.8 °F 50% 30.09 in 10.0 mi NW 15.0 mph - N/A   Clear
11:58 AM 77.5 °F - 53.2 °F 43% 30.09 in 10.0 mi NNW 11.5 mph - N/A   Clear
12:58 PM 80.1 °F - 49.8 °F 35% 30.09 in 10.0 mi North 15.0 mph - N/A   Clear
1:58 PM 81.1 °F - 48.6 °F 32% 30.08 in 10.0 mi North 12.7 mph 20.7 mph N/A   Clear
2:58 PM 80.4 °F 80.1 °F 53.2 °F 39% 30.06 in 10.0 mi NNE 15.0 mph - N/A   Clear
3:58 PM 79.3 °F - 55.8 °F 44% 30.04 in 10.0 mi NNE 13.8 mph - N/A   Clear
4:58 PM 78.3 °F - 60.4 °F 54% 30.04 in 10.0 mi NE 10.4 mph - N/A   Clear
5:58 PM 77.0 °F - 63.7 °F 63% 30.04 in 10.0 mi NE 10.4 mph - N/A   Clear
6:58 PM 75.4 °F - 62.8 °F 65% 30.04 in 10.0 mi NNE 9.2 mph - N/A   Clear
7:58 PM 73.2 °F - 63.7 °F 72% 30.06 in 10.0 mi NNE 5.8 mph - N/A   Clear
8:58 PM 70.9 °F - 64.6 °F 80% 30.06 in 10.0 mi NNE 5.8 mph - N/A   Clear
9:58 PM 69.8 °F - 64.0 °F 82% 30.09 in 10.0 mi NNE 4.6 mph - N/A   Clear
10:58 PM 71.1 °F - 64.8 °F 80% 30.09 in 10.0 mi NNE 3.5 mph - N/A   Clear
11:58 PM 70.3 °F - 64.0 °F 80% 30.09 in 10.0 mi Calm Calm - N/A   Clear